BAW782F EGLL-ENGM

Flight info

Callsign BAW782F
Flight time 1h 32m
Altitude 35000
Route EGLL1425 N0444F350 BPK6J BPK Q295 MATCH P144 SAMHO DCT LARGA DCT INBOB M604 DANKO DCT PIPEX DCT ULMUG DCT RIPAM RIPAM3L ENGM0136
Aircraft A320/M-VGDW/C

Departure

Time 2026-05-05 14:57
Airport London Heathrow Airport (EGLL)

Arrival

Time 2026-05-05 16:30
Airport Oslo-Gardermoen International Airport (ENGM)
Time Latitude Longitude Altitude Speed Heading
2026-05-05 14:38 51.46899 -0.45938 86 ft 0 kts 56°
2026-05-05 14:41 51.46897 -0.45942 86 ft 3 kts 56°
2026-05-05 14:41 51.46883 -0.45979 88 ft 4 kts 67°
2026-05-05 14:41 51.46877 -0.46019 86 ft 4 kts 96°
2026-05-05 14:41 51.46884 -0.46048 86 ft 1 kts 145°
2026-05-05 14:46 51.46877 -0.46040 86 ft 4 kts 146°
2026-05-05 14:46 51.46836 -0.45997 90 ft 8 kts 149°
2026-05-05 14:46 51.46784 -0.45984 86 ft 8 kts 179°
2026-05-05 14:46 51.46750 -0.46033 87 ft 7 kts 256°
2026-05-05 14:47 51.46748 -0.46113 86 ft 7 kts 269°
2026-05-05 14:47 51.46748 -0.46195 86 ft 7 kts 269°
2026-05-05 14:47 51.46747 -0.46278 88 ft 8 kts 270°
2026-05-05 14:47 51.46748 -0.46363 86 ft 8 kts 270°
2026-05-05 14:48 51.46749 -0.46451 86 ft 8 kts 270°
2026-05-05 14:48 51.46749 -0.46542 86 ft 8 kts 270°
2026-05-05 14:48 51.46748 -0.46635 86 ft 8 kts 270°
2026-05-05 14:48 51.46749 -0.46731 86 ft 9 kts 269°
2026-05-05 14:49 51.46748 -0.46828 86 ft 9 kts 270°
2026-05-05 14:49 51.46748 -0.46927 86 ft 9 kts 269°
2026-05-05 14:49 51.46747 -0.47028 89 ft 9 kts 269°
2026-05-05 14:49 51.46747 -0.47132 90 ft 9 kts 269°
2026-05-05 14:50 51.46746 -0.47238 86 ft 10 kts 270°
2026-05-05 14:50 51.46746 -0.47349 86 ft 10 kts 270°
2026-05-05 14:50 51.46746 -0.47463 86 ft 10 kts 270°
2026-05-05 14:50 51.46745 -0.47580 86 ft 11 kts 269°
2026-05-05 14:51 51.46745 -0.47699 86 ft 11 kts 269°
2026-05-05 14:51 51.46744 -0.47821 86 ft 11 kts 269°
2026-05-05 14:51 51.46744 -0.47945 87 ft 11 kts 270°
2026-05-05 14:51 51.46744 -0.48056 86 ft 9 kts 270°
2026-05-05 14:52 51.46744 -0.48143 86 ft 8 kts 270°
2026-05-05 14:52 51.46729 -0.48205 89 ft 6 kts 218°
2026-05-05 14:52 51.46693 -0.48213 88 ft 5 kts 181°
2026-05-05 14:52 51.46658 -0.48213 86 ft 5 kts 180°
2026-05-05 14:53 51.46624 -0.48213 86 ft 5 kts 180°
2026-05-05 14:53 51.46599 -0.48213 87 ft 3 kts 180°
2026-05-05 14:53 51.46596 -0.48213 87 ft 0 kts 180°
2026-05-05 14:55 51.46589 -0.48213 87 ft 2 kts 180°
2026-05-05 14:55 51.46567 -0.48213 87 ft 5 kts 180°
2026-05-05 14:56 51.46533 -0.48213 88 ft 6 kts 180°
2026-05-05 14:56 51.46491 -0.48197 89 ft 7 kts 137°
2026-05-05 14:56 51.46481 -0.48107 87 ft 12 kts 90°
2026-05-05 14:56 51.46482 -0.47760 86 ft 63 kts 90°
2026-05-05 14:57 51.46483 -0.47128 89 ft 103 kts 89°
2026-05-05 14:57 51.46488 -0.45709 87 ft 149 kts 90°
2026-05-05 14:57 51.46458 -0.43870 300 ft 171 kts 90°
2026-05-05 14:57 51.46381 -0.42044 1052 ft 163 kts 90°
2026-05-05 14:58 51.46662 -0.40302 1533 ft 169 kts 52°
2026-05-05 14:58 51.47546 -0.38891 1766 ft 191 kts 43°
2026-05-05 14:58 51.48518 -0.37239 2007 ft 217 kts 47°
2026-05-05 14:58 51.49570 -0.35318 2384 ft 240 kts 49°
2026-05-05 14:59 51.50678 -0.33232 3081 ft 249 kts 49°
2026-05-05 14:59 51.51796 -0.31089 3950 ft 252 kts 52°
2026-05-05 14:59 51.52620 -0.28575 4761 ft 259 kts 70°
2026-05-05 14:59 51.53204 -0.25818 5609 ft 263 kts 71°
2026-05-05 15:00 51.53930 -0.23125 6434 ft 264 kts 56°
2026-05-05 15:00 51.54716 -0.21562 6919 ft 267 kts 42°
2026-05-05 15:00 51.56841 -0.19544 7891 ft 273 kts 21°
2026-05-05 15:00 51.58607 -0.18386 8745 ft 276 kts 21°
2026-05-05 15:01 51.60431 -0.17427 9470 ft 281 kts 16°
2026-05-05 15:01 51.62323 -0.16536 10176 ft 285 kts 15°
2026-05-05 15:01 51.64325 -0.15602 10450 ft 307 kts 15°
2026-05-05 15:01 51.66453 -0.14614 10589 ft 330 kts 15°
2026-05-05 15:02 51.68706 -0.13573 10999 ft 341 kts 15°
2026-05-05 15:02 51.70941 -0.12253 11588 ft 345 kts 27°
2026-05-05 15:02 51.72915 -0.10029 12193 ft 350 kts 43°
2026-05-05 15:02 51.74472 -0.07004 12821 ft 353 kts 58°
2026-05-05 15:03 51.75486 -0.03375 13429 ft 358 kts 73°
2026-05-05 15:03 51.75925 0.00595 13999 ft 361 kts 82°
2026-05-05 15:03 51.76255 0.04623 14606 ft 363 kts 82°
2026-05-05 15:03 51.76587 0.08672 15147 ft 366 kts 82°
2026-05-05 15:04 51.76921 0.12762 15686 ft 369 kts 82°
2026-05-05 15:04 51.77257 0.16885 16208 ft 372 kts 82°
2026-05-05 15:04 51.77624 0.21040 16721 ft 375 kts 78°
2026-05-05 15:04 51.78559 0.24974 17222 ft 378 kts 59°
2026-05-05 15:05 51.82058 0.31370 18214 ft 386 kts 42°
2026-05-05 15:05 51.84034 0.34349 18630 ft 391 kts 43°
2026-05-05 15:05 51.85998 0.37427 19069 ft 395 kts 44°
2026-05-05 15:06 51.87964 0.40570 19534 ft 398 kts 44°
2026-05-05 15:06 51.89936 0.43738 19977 ft 402 kts 44°
2026-05-05 15:06 51.91937 0.46937 20431 ft 405 kts 44°
2026-05-05 15:06 51.93953 0.50141 20897 ft 407 kts 44°
2026-05-05 15:07 51.95986 0.53355 21374 ft 409 kts 44°
2026-05-05 15:07 51.98028 0.56575 21804 ft 412 kts 44°
2026-05-05 15:07 52.00093 0.59830 22196 ft 415 kts 44°
2026-05-05 15:07 52.02186 0.63068 22602 ft 418 kts 40°
2026-05-05 15:08 52.04523 0.65908 22990 ft 421 kts 34°
2026-05-05 15:08 52.06932 0.68641 23407 ft 424 kts 34°
2026-05-05 15:08 52.09353 0.71397 23762 ft 427 kts 34°
2026-05-05 15:08 52.11786 0.74178 24104 ft 429 kts 35°
2026-05-05 15:09 52.14268 0.77029 24433 ft 432 kts 35°
2026-05-05 15:09 52.16733 0.79862 24749 ft 435 kts 35°
2026-05-05 15:09 52.19185 0.82679 25062 ft 438 kts 35°
2026-05-05 15:09 52.21714 0.85588 25375 ft 441 kts 35°
2026-05-05 15:10 52.24228 0.88480 25682 ft 444 kts 35°
2026-05-05 15:10 52.26757 0.91396 25988 ft 446 kts 35°
2026-05-05 15:10 52.29301 0.94333 26280 ft 450 kts 35°
2026-05-05 15:10 52.31864 0.97303 26556 ft 454 kts 35°
2026-05-05 15:11 52.34444 1.00299 26848 ft 457 kts 35°
2026-05-05 15:11 52.37043 1.03316 27151 ft 460 kts 35°
2026-05-05 15:11 52.39660 1.06355 27463 ft 462 kts 35°
2026-05-05 15:11 52.42289 1.09414 27785 ft 465 kts 35°
2026-05-05 15:12 52.44935 1.12496 28113 ft 467 kts 35°
2026-05-05 15:12 52.47580 1.15578 28559 ft 467 kts 35°
2026-05-05 15:12 52.50226 1.18665 28982 ft 467 kts 36°
2026-05-05 15:12 52.52873 1.21759 29395 ft 468 kts 35°
2026-05-05 15:13 52.55528 1.24871 29747 ft 469 kts 35°
2026-05-05 15:13 52.58185 1.27994 30139 ft 470 kts 35°
2026-05-05 15:13 52.60841 1.31118 30515 ft 470 kts 35°
2026-05-05 15:13 52.63497 1.34251 30930 ft 468 kts 36°
2026-05-05 15:14 52.66140 1.37377 31348 ft 467 kts 35°
2026-05-05 15:14 52.68774 1.40493 31788 ft 465 kts 35°
2026-05-05 15:14 52.71398 1.43600 32223 ft 464 kts 35°
2026-05-05 15:14 52.74018 1.46705 32652 ft 463 kts 35°
2026-05-05 15:15 52.76624 1.49797 33105 ft 460 kts 35°
2026-05-05 15:15 52.79216 1.52876 33570 ft 458 kts 35°
2026-05-05 15:15 52.81803 1.55955 33971 ft 457 kts 35°
2026-05-05 15:15 52.84377 1.59025 34302 ft 456 kts 35°
2026-05-05 15:16 52.86951 1.62097 34618 ft 455 kts 35°
2026-05-05 15:16 52.89516 1.65163 34895 ft 455 kts 35°
2026-05-05 15:16 52.92088 1.68244 34982 ft 458 kts 35°
2026-05-05 15:17 52.97351 1.74564 34992 ft 469 kts 35°
2026-05-05 15:17 53.02637 1.80939 34981 ft 469 kts 35°
2026-05-05 15:18 53.07916 1.87309 34990 ft 469 kts 35°
2026-05-05 15:18 53.13189 1.93684 34991 ft 469 kts 35°
2026-05-05 15:19 53.18452 2.00103 34995 ft 469 kts 35°
2026-05-05 15:19 53.23717 2.06542 35005 ft 470 kts 35°
2026-05-05 15:20 53.29022 2.12906 35013 ft 469 kts 33°
2026-05-05 15:20 53.34433 2.18990 35015 ft 468 kts 32°
2026-05-05 15:21 53.39855 2.25034 35015 ft 468 kts 33°
2026-05-05 15:21 53.45248 2.31161 35014 ft 468 kts 33°
2026-05-05 15:22 53.50588 2.37409 35017 ft 468 kts 35°
2026-05-05 15:22 53.55808 2.43967 35014 ft 468 kts 36°
2026-05-05 15:23 53.60977 2.50641 35011 ft 468 kts 36°
2026-05-05 15:23 53.66172 2.57275 35012 ft 468 kts 36°
2026-05-05 15:24 53.71384 2.63862 35006 ft 469 kts 36°
2026-05-05 15:24 53.76599 2.70480 35022 ft 468 kts 36°
2026-05-05 15:25 53.81822 2.77142 35023 ft 467 kts 36°
2026-05-05 15:25 53.86996 2.83775 35021 ft 466 kts 36°
2026-05-05 15:26 53.92157 2.90415 35016 ft 466 kts 36°
2026-05-05 15:26 53.97314 2.97065 35025 ft 465 kts 37°
2026-05-05 15:27 54.02458 3.03704 35023 ft 464 kts 37°
2026-05-05 15:27 54.07580 3.10352 35020 ft 462 kts 37°
2026-05-05 15:28 54.12689 3.16999 35019 ft 462 kts 37°
2026-05-05 15:28 54.17791 3.23661 35010 ft 462 kts 37°
2026-05-05 15:29 54.22900 3.30351 35020 ft 463 kts 37°
2026-05-05 15:29 54.27999 3.37059 35017 ft 463 kts 37°
2026-05-05 15:30 54.33102 3.43791 35016 ft 463 kts 37°
2026-05-05 15:30 54.37372 3.49435 35015 ft 463 kts 37°
2026-05-05 15:31 54.42464 3.56186 35009 ft 463 kts 37°
2026-05-05 15:31 54.47559 3.62951 35014 ft 463 kts 36°
2026-05-05 15:32 54.52659 3.69753 35007 ft 464 kts 36°
2026-05-05 15:32 54.57764 3.76587 35001 ft 465 kts 37°
2026-05-05 15:33 54.62865 3.83452 34997 ft 465 kts 37°
2026-05-05 15:33 54.67975 3.90343 35004 ft 466 kts 37°
2026-05-05 15:34 54.73085 3.97249 35013 ft 467 kts 36°
2026-05-05 15:34 54.78201 4.04186 35008 ft 468 kts 36°
2026-05-05 15:35 54.83320 4.11161 35001 ft 468 kts 36°
2026-05-05 15:35 54.88574 4.17807 35003 ft 467 kts 31°
2026-05-05 15:36 54.94041 4.23903 35026 ft 467 kts 30°
2026-05-05 15:36 54.99519 4.30027 35002 ft 469 kts 30°
2026-05-05 15:37 55.05004 4.36196 34991 ft 470 kts 30°
2026-05-05 15:37 55.10495 4.42397 34997 ft 470 kts 30°
2026-05-05 15:38 55.16022 4.48647 35003 ft 470 kts 30°
2026-05-05 15:38 55.21518 4.54881 35006 ft 471 kts 30°
2026-05-05 15:39 55.27018 4.61155 34998 ft 472 kts 30°
2026-05-05 15:39 55.32531 4.67450 35000 ft 473 kts 30°
2026-05-05 15:40 55.38043 4.73767 35001 ft 473 kts 30°
2026-05-05 15:40 55.43552 4.80113 35021 ft 474 kts 30°
2026-05-05 15:41 55.49065 4.86485 35021 ft 474 kts 30°
2026-05-05 15:41 55.54585 4.92894 35008 ft 475 kts 30°
2026-05-05 15:42 55.60103 4.99319 35010 ft 475 kts 30°
2026-05-05 15:42 55.65630 5.05762 35009 ft 476 kts 30°
2026-05-05 15:43 55.71155 5.12235 35026 ft 476 kts 30°
2026-05-05 15:43 55.76674 5.18727 35026 ft 476 kts 30°
2026-05-05 15:44 55.82197 5.25246 35018 ft 477 kts 30°
2026-05-05 15:44 55.87724 5.31772 35016 ft 477 kts 30°
2026-05-05 15:45 55.93277 5.38389 35015 ft 477 kts 30°
2026-05-05 15:45 55.98794 5.44970 35018 ft 477 kts 30°
2026-05-05 15:46 56.04312 5.51551 35017 ft 477 kts 30°
2026-05-05 15:46 56.09822 5.58161 35017 ft 477 kts 30°
2026-05-05 15:47 56.15330 5.64801 35021 ft 477 kts 30°
2026-05-05 15:47 56.20840 5.71452 35039 ft 477 kts 30°
2026-05-05 15:48 56.26344 5.78124 35026 ft 477 kts 30°
2026-05-05 15:48 56.31842 5.84839 35031 ft 478 kts 30°
2026-05-05 15:49 56.37343 5.91552 35029 ft 478 kts 30°
2026-05-05 15:49 56.42845 5.98277 35036 ft 478 kts 30°
2026-05-05 15:50 56.48342 6.05040 35021 ft 478 kts 30°
2026-05-05 15:50 56.53830 6.11824 35022 ft 478 kts 30°
2026-05-05 15:51 56.59327 6.18630 35026 ft 478 kts 30°
2026-05-05 15:51 56.64828 6.25447 35027 ft 479 kts 30°
2026-05-05 15:52 56.70323 6.32306 35053 ft 479 kts 30°
2026-05-05 15:52 56.75810 6.39195 35045 ft 479 kts 30°
2026-05-05 15:53 56.81299 6.46096 35040 ft 479 kts 30°
2026-05-05 15:53 56.86827 6.53061 35038 ft 480 kts 30°
2026-05-05 15:54 56.92314 6.60014 35030 ft 480 kts 30°
2026-05-05 15:54 56.97798 6.66989 35050 ft 480 kts 30°
2026-05-05 15:55 57.03305 6.73899 35038 ft 479 kts 28°
2026-05-05 15:55 57.08901 6.80532 35031 ft 478 kts 27°
2026-05-05 15:56 57.14512 6.87136 35028 ft 479 kts 28°
2026-05-05 15:56 57.20094 6.93829 35050 ft 480 kts 28°
2026-05-05 15:57 57.25671 7.00594 35008 ft 479 kts 28°
2026-05-05 15:57 57.31243 7.07373 35003 ft 480 kts 28°
2026-05-05 15:58 57.36821 7.14180 35007 ft 480 kts 28°
2026-05-05 15:58 57.42402 7.21018 34998 ft 481 kts 28°
2026-05-05 15:59 57.47981 7.27868 35028 ft 481 kts 27°
2026-05-05 15:59 57.53573 7.34748 35009 ft 482 kts 27°
2026-05-05 16:00 57.59164 7.41665 34998 ft 483 kts 27°
2026-05-05 16:00 57.64753 7.48627 34997 ft 483 kts 28°
2026-05-05 16:01 57.70384 7.55640 35032 ft 483 kts 27°
2026-05-05 16:01 57.75976 7.62631 34988 ft 483 kts 27°
2026-05-05 16:02 57.81560 7.69647 34983 ft 484 kts 27°
2026-05-05 16:02 57.87155 7.76691 34980 ft 484 kts 27°
2026-05-05 16:03 57.92742 7.83763 34957 ft 484 kts 28°
2026-05-05 16:03 57.97380 7.89676 34966 ft 485 kts 28°
2026-05-05 16:04 58.02960 7.96785 34926 ft 484 kts 27°
2026-05-05 16:04 58.08545 8.03904 34917 ft 485 kts 27°
2026-05-05 16:05 58.14137 8.11075 34912 ft 486 kts 28°
2026-05-05 16:05 58.19751 8.18402 34916 ft 488 kts 30°
2026-05-05 16:06 58.25172 8.26231 34951 ft 491 kts 32°
2026-05-05 16:06 58.30496 8.34382 34946 ft 492 kts 33°
2026-05-05 16:07 58.35847 8.42493 34944 ft 491 kts 32°
2026-05-05 16:07 58.41230 8.50510 34948 ft 491 kts 32°
2026-05-05 16:08 58.46625 8.58517 34945 ft 491 kts 32°
2026-05-05 16:08 58.52011 8.66563 34940 ft 492 kts 32°
2026-05-05 16:08 58.54705 8.70612 34804 ft 492 kts 32°
2026-05-05 16:09 58.57393 8.74670 34458 ft 492 kts 32°
2026-05-05 16:09 58.60075 8.78736 34036 ft 492 kts 31°
2026-05-05 16:09 58.62759 8.82818 33551 ft 493 kts 32°
2026-05-05 16:09 58.65445 8.86907 33058 ft 494 kts 32°
2026-05-05 16:10 58.68142 8.91013 32575 ft 495 kts 32°
2026-05-05 16:10 58.70840 8.95119 32093 ft 495 kts 32°
2026-05-05 16:10 58.73541 8.99240 31686 ft 494 kts 31°
2026-05-05 16:10 58.76255 9.03395 31217 ft 491 kts 31°
2026-05-05 16:11 58.78923 9.07497 30758 ft 488 kts 31°
2026-05-05 16:11 58.86810 9.19683 29319 ft 479 kts 31°
2026-05-05 16:12 58.89402 9.23696 28818 ft 476 kts 31°
2026-05-05 16:12 58.94527 9.31640 27829 ft 468 kts 31°
2026-05-05 16:13 59.02069 9.43374 26475 ft 459 kts 30°
2026-05-05 16:13 59.04551 9.47247 26007 ft 456 kts 30°
2026-05-05 16:13 59.07019 9.51109 25560 ft 454 kts 30°
2026-05-05 16:14 59.11890 9.58781 24674 ft 448 kts 31°
2026-05-05 16:14 59.16695 9.66365 23780 ft 442 kts 31°
2026-05-05 16:15 59.21446 9.73886 22827 ft 438 kts 31°
2026-05-05 16:15 59.26141 9.81339 21933 ft 432 kts 30°
2026-05-05 16:16 59.30794 9.88767 20973 ft 425 kts 30°
2026-05-05 16:16 59.35334 9.96044 20049 ft 419 kts 30°
2026-05-05 16:17 59.39811 10.03229 19141 ft 413 kts 31°
2026-05-05 16:17 59.42026 10.06799 18659 ft 410 kts 31°
2026-05-05 16:18 59.46391 10.13882 17623 ft 405 kts 31°
2026-05-05 16:18 59.48534 10.17371 17048 ft 393 kts 32°
2026-05-05 16:18 59.52639 10.24050 16010 ft 374 kts 33°
2026-05-05 16:19 59.54631 10.27282 15476 ft 368 kts 33°
2026-05-05 16:19 59.56593 10.30464 14957 ft 363 kts 33°
2026-05-05 16:19 59.60430 10.36711 13953 ft 352 kts 34°
2026-05-05 16:20 59.64149 10.42806 12855 ft 343 kts 35°
2026-05-05 16:20 59.67782 10.48786 11748 ft 336 kts 36°
2026-05-05 16:21 59.71298 10.54583 10702 ft 320 kts 36°
2026-05-05 16:22 59.76253 10.62783 9125 ft 299 kts 37°
2026-05-05 16:22 59.79363 10.67940 8216 ft 280 kts 36°
2026-05-05 16:23 59.82330 10.72867 7361 ft 276 kts 36°
2026-05-05 16:23 59.83801 10.75314 6950 ft 275 kts 37°
2026-05-05 16:23 59.86712 10.80171 6134 ft 272 kts 35°
2026-05-05 16:24 59.88155 10.82580 5689 ft 270 kts 36°
2026-05-05 16:24 59.89591 10.84982 5254 ft 269 kts 36°
2026-05-05 16:24 59.92380 10.89671 4420 ft 256 kts 37°
2026-05-05 16:25 59.93724 10.91938 4044 ft 248 kts 36°
2026-05-05 16:25 59.96251 10.96196 4002 ft 235 kts 35°
2026-05-05 16:25 59.97502 10.98293 4001 ft 235 kts 36°
2026-05-05 16:26 60.00386 11.00935 4020 ft 227 kts 11°
2026-05-05 16:26 60.03356 11.02616 3690 ft 218 kts 12°
2026-05-05 16:27 60.04828 11.03457 3404 ft 216 kts 12°
2026-05-05 16:27 60.06271 11.04282 3115 ft 216 kts 11°
2026-05-05 16:27 60.07719 11.05111 2810 ft 216 kts 13°
2026-05-05 16:27 60.09169 11.05942 2513 ft 217 kts 12°
2026-05-05 16:28 60.10617 11.06774 2214 ft 216 kts 12°
2026-05-05 16:28 60.12062 11.07604 1912 ft 216 kts 12°
2026-05-05 16:28 60.13490 11.08426 1601 ft 214 kts 11°
2026-05-05 16:28 60.14901 11.09239 1304 ft 207 kts 14°
2026-05-05 16:29 60.16237 11.10009 999 ft 194 kts 16°
2026-05-05 16:29 60.17480 11.10736 770 ft 178 kts 12°
2026-05-05 16:29 60.18598 11.11361 687 ft 149 kts 14°
2026-05-05 16:29 60.19311 11.11785 691 ft 63 kts 16°
2026-05-05 16:30 60.19564 11.11895 690 ft 29 kts
2026-05-05 16:30 60.19672 11.11848 687 ft 9 kts 328°
2026-05-05 16:30 60.19689 11.11814 688 ft 0 kts 308°
2026-05-05 16:31 60.19689 11.11813 688 ft 1 kts 308°
2026-05-05 16:31 60.19701 11.11762 688 ft 7 kts 288°
2026-05-05 16:32 60.19712 11.11647 688 ft 10 kts 258°
2026-05-05 16:32 60.19650 11.11582 690 ft 12 kts 196°
2026-05-05 16:32 60.19563 11.11532 686 ft 14 kts 196°
2026-05-05 16:32 60.19459 11.11472 685 ft 17 kts 196°
2026-05-05 16:33 60.19357 11.11414 688 ft 13 kts 195°
2026-05-05 16:33 60.19264 11.11361 691 ft 15 kts 195°
2026-05-05 16:33 60.19190 11.11318 687 ft 8 kts 196°
2026-05-05 16:33 60.19152 11.11246 691 ft 9 kts 262°
2026-05-05 16:34 60.19168 11.11105 689 ft 11 kts 285°
2026-05-05 16:34 60.19180 11.11018 687 ft 8 kts 286°
2026-05-05 16:34 60.19196 11.10909 687 ft 6 kts 286°
2026-05-05 16:34 60.19229 11.10856 689 ft 5 kts 337°
2026-05-05 16:35 60.19254 11.10836 686 ft 3 kts 338°
2026-05-05 16:35 60.19268 11.10825 684 ft 0 kts 339°
2026-05-05 16:39 60.19254 11.10835 687 ft 0 kts 339°